Date String (YYYY-MM-DD hh:mm:ss) UTC,Instrument flags,Ambient pressure (hPa),Sample flow (lpm),Bypass flow (lpm),Sample temperature (°C),Ambient temperature (°C),ASC tube jacket temperature (°C),LED temperature (°C),Box temperature (°C),Sample RH (%),Span deviation,Mass concentration (μg/m³),Mass concentration (μg/m³),Mass concentration (μg/m³)
DateTimeUTC,F1_M11,P_M11,Q1_M11,Q2_M11,T1_M11,T2_M11,T3_M11,T4_M11,T5_M11,U1_M11,ZSPAN_M11,X0_M11,X2_M11,X1_M11
2021-09-19 07:00:00,,0824.6,5.00,0.00,29.7,28.9,00.0,38.7,31.5,20.0,0000.0,0009.33,0002.85,0001.74
2021-09-19 07:01:00,,0824.5,5.00,0.00,29.7,28.9,00.0,38.7,31.5,19.9,0000.0,0010.36,0002.83,0001.69
2021-09-19 07:02:00,,0824.5,5.00,0.00,29.7,29.0,00.0,38.8,31.6,19.9,0000.0,0010.50,0002.83,0001.64
2021-09-19 07:03:00,,0824.6,5.02,0.00,29.8,29.0,00.0,38.8,31.6,19.8,0000.0,0011.37,0002.88,0001.60
2021-09-19 07:04:00,,0824.5,5.00,0.00,29.7,28.4,00.0,38.8,31.4,19.8,0000.0,0011.75,0002.93,0001.56
2021-09-19 07:05:00,,0824.6,4.98,0.00,29.6,26.6,00.0,38.8,31.0,20.0,0000.0,0011.97,0002.95,0001.51
2021-09-19 07:06:00,,0824.5,5.00,0.00,29.5,26.3,00.0,38.7,30.9,20.2,0000.0,0011.98,0003.01,0001.46
2021-09-19 07:07:00,,0824.4,5.01,0.00,29.4,26.6,00.0,38.7,30.9,20.3,0000.0,0012.25,0002.98,0001.42
2021-09-19 07:08:00,,0824.5,5.01,0.00,29.4,27.0,00.0,38.7,31.0,20.3,0000.0,0013.40,0003.10,0001.40
2021-09-19 07:09:00,,0824.4,4.99,0.00,29.4,27.3,00.0,38.6,31.1,20.4,0000.0,0014.11,0003.19,0001.39
2021-09-19 07:10:00,,0824.4,4.99,0.00,29.4,27.6,00.0,38.6,31.1,20.5,0000.0,0014.23,0003.26,0001.38
2021-09-19 07:11:00,,0824.5,5.00,0.00,29.4,27.8,00.0,38.6,31.1,20.4,0000.0,0014.19,0003.32,0001.38
2021-09-19 07:12:00,,0824.5,5.00,0.00,29.4,28.0,00.0,38.6,31.1,20.4,0000.0,0013.53,0003.35,0001.36
2021-09-19 07:13:00,,0824.5,5.00,0.00,29.4,28.2,00.0,38.6,31.2,20.2,0000.0,0013.62,0003.32,0001.34
2021-09-19 07:14:00,,0824.6,5.01,0.00,29.5,28.3,00.0,38.6,31.3,20.3,0000.0,0012.55,0003.25,0001.30
2021-09-19 07:15:00,,0824.5,4.99,0.00,29.5,28.4,00.0,38.6,31.3,20.2,0000.0,0011.99,0003.19,0001.26
2021-09-19 07:16:00,,0824.6,5.00,0.00,29.5,28.5,00.0,38.6,31.3,20.1,0000.0,0011.44,0003.22,0001.25
2021-09-19 07:17:00,,0824.7,5.01,0.00,29.5,28.6,00.0,38.6,31.3,20.1,0000.0,0011.18,0003.21,0001.23
2021-09-19 07:18:00,,0824.5,4.99,0.00,29.5,28.6,00.0,38.6,31.3,20.2,0000.0,0010.81,0003.23,0001.21
2021-09-19 07:19:00,,0824.5,4.99,0.00,29.6,28.7,00.0,38.7,31.3,20.2,0000.0,0009.42,0003.16,0001.16
2021-09-19 07:20:00,,0824.7,5.01,0.00,29.6,28.7,00.0,38.7,31.3,20.2,0000.0,0009.13,0003.12,0001.13
2021-09-19 07:21:00,,0824.7,4.99,0.00,29.6,28.7,00.0,38.7,31.4,20.0,0000.0,0008.69,0002.94,0001.09
2021-09-19 07:22:00,,0824.4,5.01,0.00,29.6,28.8,00.0,38.7,31.4,19.8,0000.0,0008.24,0002.79,0001.06
2021-09-19 07:23:00,,0824.4,4.99,0.00,29.6,28.8,00.0,38.7,31.4,19.8,0000.0,0007.68,0002.71,0001.03
2021-09-19 07:24:00,,0824.5,5.01,0.00,29.7,28.9,00.0,38.7,31.4,19.8,0000.0,0007.90,0002.74,0001.01
2021-09-19 07:25:00,,0824.4,4.98,0.00,29.7,28.9,00.0,38.7,31.4,19.8,0000.0,0009.19,0002.78,0000.99
2021-09-19 07:26:00,,0824.4,5.00,0.00,29.7,28.9,00.0,38.8,31.5,19.8,0000.0,0010.10,0002.70,0000.95
2021-09-19 07:27:00,,0824.3,5.01,0.00,29.7,29.0,00.0,38.8,31.5,19.7,0000.0,0010.98,0002.79,0000.93
2021-09-19 07:28:00,,0824.3,5.00,0.00,29.7,29.0,00.0,38.8,31.5,19.7,0000.0,0012.37,0003.10,0000.95
2021-09-19 07:29:00,,0824.3,5.00,0.00,29.7,29.0,00.0,38.8,31.5,19.7,0000.0,0014.32,0003.33,0000.97
2021-09-19 07:30:00,,0824.4,5.00,0.00,29.7,29.0,00.0,38.8,31.5,19.7,0000.0,0016.57,0003.53,0000.98
2021-09-19 07:31:00,,0824.2,5.00,0.00,29.7,29.1,00.0,38.8,31.5,19.7,0000.0,0018.47,0003.67,0000.98
2021-09-19 07:32:00,,0824.4,5.00,0.00,29.7,28.8,00.0,38.9,31.5,19.6,0000.0,0019.32,0003.75,0000.98
2021-09-19 07:33:00,,0824.3,4.99,0.00,29.7,27.1,00.0,38.8,31.1,19.7,0000.0,0019.94,0003.82,0000.98
2021-09-19 07:34:00,,0824.3,5.00,0.00,29.6,26.4,00.0,38.8,30.9,19.6,0000.0,0021.29,0003.90,0000.97
2021-09-19 07:35:00,,0824.4,5.01,0.00,29.5,26.6,00.0,38.8,31.0,19.7,0000.0,0021.97,0003.93,0000.97
2021-09-19 07:36:00,,0824.4,5.01,0.00,29.4,27.0,00.0,38.8,31.0,19.8,0000.0,0021.31,0003.92,0000.96
2021-09-19 07:37:00,,0824.4,4.99,0.00,29.5,27.3,00.0,38.7,31.1,19.8,0000.0,0020.68,0003.95,0000.98
2021-09-19 07:38:00,,0824.4,5.00,0.00,29.5,27.6,00.0,38.7,31.2,19.8,0000.0,0020.08,0003.91,0000.96
2021-09-19 07:39:00,,0824.4,5.00,0.00,29.5,27.9,00.0,38.7,31.2,19.8,0000.0,0018.64,0003.72,0000.91
2021-09-19 07:40:00,,0824.4,5.00,0.00,29.5,28.0,00.0,38.7,31.2,19.8,0000.0,0016.99,0003.44,0000.86
2021-09-19 07:41:00,,0824.4,4.99,0.00,29.5,28.2,00.0,38.7,31.3,19.9,0000.0,0015.25,0003.19,0000.83
2021-09-19 07:42:00,,0824.4,5.01,0.00,29.5,28.3,00.0,38.7,31.3,19.9,0000.0,0013.28,0002.84,0000.78
2021-09-19 07:43:00,,0824.3,4.99,0.00,29.5,28.4,00.0,38.7,31.3,19.8,0000.0,0012.21,0002.60,0000.74
2021-09-19 07:44:00,,0824.3,5.01,0.00,29.6,28.5,00.0,38.7,31.4,19.7,0000.0,0011.98,0002.47,0000.71
2021-09-19 07:45:00,,0824.2,5.00,0.00,29.6,28.6,00.0,38.7,31.4,19.7,0000.0,0010.73,0002.19,0000.69
2021-09-19 07:46:00,,0824.3,4.99,0.00,29.6,28.6,00.0,38.7,31.4,19.8,0000.0,0009.51,0001.99,0000.66
2021-09-19 07:47:00,,0824.5,5.00,0.00,29.6,28.7,00.0,38.7,31.4,19.8,0000.0,0008.69,0001.87,0000.64
2021-09-19 07:48:00,,0824.5,5.01,0.00,29.6,28.7,00.0,38.7,31.4,19.8,0000.0,0008.24,0001.78,0000.62
2021-09-19 07:49:00,,0824.7,4.98,0.00,29.6,28.8,00.0,38.7,31.4,19.8,0000.0,0007.78,0001.71,0000.61
2021-09-19 07:50:00,,0824.8,5.00,0.00,29.7,28.8,00.0,38.7,31.5,19.8,0000.0,0007.67,0001.65,0000.60
2021-09-19 07:51:00,,0824.8,5.01,0.00,29.7,28.8,00.0,38.8,31.5,19.7,0000.0,0007.20,0001.63,0000.58
2021-09-19 07:52:00,,0824.9,4.99,0.00,29.7,28.9,00.0,38.8,31.5,19.7,0000.0,0005.75,0001.56,0000.57
2021-09-19 07:53:00,,0825.0,5.01,0.00,29.7,28.9,00.0,38.8,31.5,19.7,0000.0,0005.07,0001.54,0000.56
2021-09-19 07:54:00,,0825.1,5.00,0.00,29.8,28.9,00.0,38.8,31.6,19.7,0000.0,0004.49,0001.47,0000.55
2021-09-19 07:55:00,,0825.1,5.00,0.00,29.8,28.9,00.0,38.8,31.6,19.7,0000.0,0003.73,0001.37,0000.55
2021-09-19 07:56:00,,0825.2,5.01,0.00,29.8,28.9,00.0,38.8,31.6,19.5,0000.0,0003.24,0001.34,0000.55
2021-09-19 07:57:00,,0825.2,5.00,0.00,29.9,28.8,00.0,38.9,31.6,19.5,0000.0,0003.17,0001.35,0000.54
2021-09-19 07:58:00,,0825.2,5.01,0.00,29.8,27.1,00.0,38.8,31.2,19.5,0000.0,0002.89,0001.25,0000.54
2021-09-19 07:59:00,,0825.2,4.99,0.00,29.6,26.3,00.0,38.8,31.0,19.6,0000.0,0002.73,0001.17,0000.52
